Home   Weather   Haarlem   Past weeks

Flag for Netherlands Past Weather in Haarlem, Netherlands — Yesterday and Last 2 Weeks

Now
57 °F

Scattered showers. Passing clouds.


Feels Like: 55 °F
Forecast: 55 / 59 °F
Wind: 8 mph from South

Location: Amsterdam Schiphol Airport

Current Time: Sep 30, 2016 at 10:32:41 PM

Latest Report: Sep 30, 2016 at 9:55 PM


Visibility: N/A

Pressure: 29.89 "Hg

Humidity: 77%

Dew Point: 50 °F

Location of HaarlemLocation

Past Weather in Haarlem — Graph

°F

Haarlem Temperature Yesterday

Maximum temperature yesterday: 64 °F (at 1:55 PM)
Minimum temperature yesterday: 57 °F (at 5:55 PM)
Average temperature yesterday: 61 °F

High & Low Weather Summary for the Past Weeks

 TemperatureHumidityPressure
High73 °F (Sep 24, 3:25 PM)100% (Sep 16, 4:25 AM)30.27 "Hg (Sep 16, 4:25 AM)
Low46 °F (Sep 27, 6:55 AM)43% (Sep 27, 3:25 PM)29.83 "Hg (Sep 15, 9:25 PM)
Average61 °F77%30.08 "Hg
* Reported Sep 15 9:25 PM — Sep 30 9:25 PM, Haarlem, Weather by CustomWeather, © 2016

Note: Actual official high and low records may vary slightly from our data, if they occured in-between our weather recording intervals... More about our weather records

Advertising

Haarlem Weather History for the Previous 24 Hours

Scroll right to see more
 ConditionsComfort  
Time TempWeatherWind HumidityBarometerVisibility
9:25 PM
Fri, Sep 30
57 °FPassing clouds.8 mph77%29.89 "HgN/A
8:55 PM57 °FClear.7 mph77%29.89 "Hg10 mi
8:25 PM55 °FPassing clouds.8 mph82%29.89 "HgN/A
7:55 PM55 °FPassing clouds.7 mph77%29.89 "HgN/A
7:25 PM57 °FPassing clouds.9 mph72%29.89 "HgN/A
6:55 PM59 °FPassing clouds.10 mph68%29.89 "HgN/A
6:25 PM61 °FPassing clouds.13 mph59%29.89 "HgN/A
5:55 PM63 °FPassing clouds.15 mph56%29.89 "HgN/A
5:25 PM63 °FPassing clouds.18 mph49%29.89 "HgN/A
4:55 PM63 °FPassing clouds.20 mph52%29.89 "HgN/A
4:25 PM63 °FPassing clouds.20 mph56%29.89 "HgN/A
3:55 PM64 °FPassing clouds.20 mph52%29.92 "HgN/A
3:25 PM61 °FSprinkles. Passing clouds.14 mph63%29.92 "HgN/A
2:55 PM61 °FPassing clouds.13 mph68%29.92 "HgN/A
2:25 PM61 °FScattered clouds.22 mph63%29.92 "HgN/A
1:55 PM64 °FPassing clouds.16 mph56%29.92 "HgN/A
1:25 PM64 °FPassing clouds.18 mph52%29.92 "HgN/A
12:55 PM64 °FPassing clouds.20 mph56%29.92 "HgN/A
12:25 PM63 °FPassing clouds.16 mph64%29.92 "HgN/A
11:55 AM63 °FScattered clouds.13 mph64%29.92 "HgN/A
11:25 AM61 °FScattered clouds.10 mph77%29.89 "HgN/A
10:55 AM61 °FScattered clouds.12 mph77%29.89 "HgN/A
10:25 AM59 °FPassing clouds.9 mph82%29.89 "HgN/A
9:55 AM57 °FPassing clouds.6 mph88%29.89 "HgN/A
9:25 AM57 °FPassing clouds.6 mph88%29.89 "HgN/A
8:55 AM55 °FPassing clouds.7 mph88%29.89 "HgN/A
8:25 AM54 °FPassing clouds.7 mph94%29.89 "HgN/A
7:55 AM54 °FPassing clouds.7 mph88%29.89 "HgN/A
7:25 AM54 °FPassing clouds.7 mph88%29.86 "HgN/A
6:55 AM54 °FPassing clouds.7 mph88%29.86 "HgN/A
6:25 AM54 °FPassing clouds.6 mph88%29.86 "HgN/A
5:55 AM54 °FPassing clouds.6 mph88%29.86 "HgN/A
5:25 AM54 °FPassing clouds.5 mph88%29.86 "HgN/A
4:55 AM54 °FPassing clouds.6 mph82%29.86 "HgN/A
4:25 AM55 °FPassing clouds.7 mph77%29.86 "HgN/A
3:55 AM55 °FPassing clouds.5 mph77%29.86 "HgN/A
3:25 AM57 °FPassing clouds.6 mph72%29.86 "HgN/A
2:55 AM55 °FPassing clouds.7 mph77%29.86 "HgN/A
2:25 AM55 °FPassing clouds.7 mph77%29.89 "HgN/A
1:55 AM57 °FPassing clouds.6 mph77%29.89 "HgN/A
1:25 AM57 °FPassing clouds.7 mph77%29.89 "HgN/A
12:55 AM57 °FPassing clouds.8 mph82%29.89 "HgN/A
12:25 AM59 °FScattered showers. Passing clouds.9 mph82%29.89 "HgN/A
11:55 PM
Thu, Sep 29
59 °FPassing clouds.12 mph82%29.89 "HgN/A
11:25 PM59 °FSprinkles. Passing clouds.10 mph77%29.89 "HgN/A
10:55 PM61 °FRain showers. Passing clouds.14 mph83%29.89 "Hg5 mi
10:25 PM61 °FSprinkles. Passing clouds.13 mph83%29.89 "HgN/A
Weather by CustomWeather, © 2016

See weather overviewHow to use our weather pages